Year,Month,Day,Hour,Minute,Value (Times are PST for temperature in C)
2015,06,26,00,00,16.20
2015,06,26,00,01,16.20
2015,06,26,00,02,16.20
2015,06,26,00,03,16.10
2015,06,26,00,04,16.10
2015,06,26,00,05,16.10
2015,06,26,00,06,16.10
2015,06,26,00,07,16.10
2015,06,26,00,08,16.10
2015,06,26,00,09,16.00
2015,06,26,00,10,16.00
2015,06,26,00,11,16.00
2015,06,26,00,12,16.00
2015,06,26,00,13,16.00
2015,06,26,00,14,15.90
2015,06,26,00,15,15.90
2015,06,26,00,16,15.90
2015,06,26,00,17,15.90
2015,06,26,00,18,15.90
2015,06,26,00,19,15.90
2015,06,26,00,20,15.90
2015,06,26,00,21,15.90
2015,06,26,00,22,15.90
2015,06,26,00,23,15.80
2015,06,26,00,24,15.80
2015,06,26,00,25,15.80
2015,06,26,00,26,15.80
2015,06,26,00,27,15.80
2015,06,26,00,28,15.80
2015,06,26,00,29,15.70
2015,06,26,00,30,15.70
2015,06,26,00,31,15.70
2015,06,26,00,32,15.70
2015,06,26,00,33,15.70
2015,06,26,00,34,15.70
2015,06,26,00,35,15.70
2015,06,26,00,36,15.70
2015,06,26,00,37,15.60
2015,06,26,00,38,15.60
2015,06,26,00,39,15.60
2015,06,26,00,40,15.60
2015,06,26,00,41,15.60
2015,06,26,00,42,15.60
2015,06,26,00,43,15.60
2015,06,26,00,44,15.60
2015,06,26,00,45,15.50
2015,06,26,00,46,15.50
2015,06,26,00,47,15.50
2015,06,26,00,48,15.50
2015,06,26,00,49,15.40
2015,06,26,00,50,15.40
2015,06,26,00,51,15.40
2015,06,26,00,52,15.40
2015,06,26,00,53,15.40
2015,06,26,00,54,15.40
2015,06,26,00,55,15.40
2015,06,26,00,56,15.30
2015,06,26,00,57,15.30
2015,06,26,00,58,15.30
2015,06,26,00,59,15.30
2015,06,26,01,00,15.30
2015,06,26,01,01,15.30
2015,06,26,01,02,15.30
2015,06,26,01,03,15.20
2015,06,26,01,04,15.20
2015,06,26,01,05,15.20
2015,06,26,01,06,15.20
2015,06,26,01,07,15.20
2015,06,26,01,08,15.10
2015,06,26,01,09,15.10
2015,06,26,01,10,15.10
2015,06,26,01,11,15.00
2015,06,26,01,12,15.00
2015,06,26,01,13,15.00
2015,06,26,01,14,15.00
2015,06,26,01,15,15.00
2015,06,26,01,16,15.00
2015,06,26,01,17,15.00
2015,06,26,01,18,15.00
2015,06,26,01,19,15.00
2015,06,26,01,20,15.00
2015,06,26,01,21,15.00
2015,06,26,01,22,15.00
2015,06,26,01,23,15.00
2015,06,26,01,24,15.00
2015,06,26,01,25,15.00
2015,06,26,01,26,15.00
2015,06,26,01,27,15.00
2015,06,26,01,28,15.00
2015,06,26,01,29,15.00
2015,06,26,01,30,15.00
2015,06,26,01,31,15.00
2015,06,26,01,32,14.90
2015,06,26,01,33,14.90
2015,06,26,01,34,14.90
2015,06,26,01,35,14.90
2015,06,26,01,36,14.90
2015,06,26,01,37,14.80
2015,06,26,01,38,14.80
2015,06,26,01,39,14.80
2015,06,26,01,40,14.80
2015,06,26,01,41,14.80
2015,06,26,01,42,14.80
2015,06,26,01,43,14.80
2015,06,26,01,44,14.80
2015,06,26,01,45,14.70
2015,06,26,01,46,14.70
2015,06,26,01,47,14.70
2015,06,26,01,48,14.70
2015,06,26,01,49,14.70
2015,06,26,01,50,14.70
2015,06,26,01,51,14.70
2015,06,26,01,52,14.70
2015,06,26,01,53,14.70
2015,06,26,01,54,14.70
2015,06,26,01,55,14.70
2015,06,26,01,56,14.70
2015,06,26,01,57,14.60
2015,06,26,01,58,14.60
2015,06,26,01,59,14.60
2015,06,26,02,00,14.60
2015,06,26,02,01,14.60
2015,06,26,02,02,14.60
2015,06,26,02,03,14.60
2015,06,26,02,04,14.60
2015,06,26,02,05,14.60
2015,06,26,02,06,14.60
2015,06,26,02,07,14.60
2015,06,26,02,08,14.60
2015,06,26,02,09,14.60
2015,06,26,02,10,14.60
2015,06,26,02,11,14.60
2015,06,26,02,12,14.60
2015,06,26,02,13,14.50
2015,06,26,02,14,14.50
2015,06,26,02,15,14.50
2015,06,26,02,16,14.50
2015,06,26,02,17,14.50
2015,06,26,02,18,14.50
2015,06,26,02,19,14.50
2015,06,26,02,20,14.50
2015,06,26,02,21,14.40
2015,06,26,02,22,14.40
2015,06,26,02,23,14.40
2015,06,26,02,24,14.40
2015,06,26,02,25,14.40
2015,06,26,02,26,14.40
2015,06,26,02,27,14.40
2015,06,26,02,28,14.40
2015,06,26,02,29,14.40
2015,06,26,02,30,14.40
2015,06,26,02,31,14.40
2015,06,26,02,32,14.40
2015,06,26,02,33,14.40
2015,06,26,02,34,14.30
2015,06,26,02,35,14.30
2015,06,26,02,36,14.30
2015,06,26,02,37,14.30
2015,06,26,02,38,14.30
2015,06,26,02,39,14.30
2015,06,26,02,40,14.30
2015,06,26,02,41,14.30
2015,06,26,02,42,14.30
2015,06,26,02,43,14.30
2015,06,26,02,44,14.20
2015,06,26,02,45,14.30
2015,06,26,02,46,14.20
2015,06,26,02,47,14.20
2015,06,26,02,48,14.20
2015,06,26,02,49,14.20
2015,06,26,02,50,14.20
2015,06,26,02,51,14.20
2015,06,26,02,52,14.20
2015,06,26,02,53,14.20
2015,06,26,02,54,14.20
2015,06,26,02,55,14.20
2015,06,26,02,56,14.20
2015,06,26,02,57,14.20
2015,06,26,02,58,14.10
2015,06,26,02,59,14.10
2015,06,26,03,00,14.10
2015,06,26,03,01,14.10
2015,06,26,03,02,14.10
2015,06,26,03,03,14.10
2015,06,26,03,04,14.10
2015,06,26,03,05,14.10
2015,06,26,03,06,14.10
2015,06,26,03,07,14.10
2015,06,26,03,08,14.10
2015,06,26,03,09,14.10
2015,06,26,03,10,14.10
2015,06,26,03,11,14.00
2015,06,26,03,12,14.00
2015,06,26,03,13,14.00
2015,06,26,03,14,14.00
2015,06,26,03,15,14.00
2015,06,26,03,16,14.00
2015,06,26,03,17,14.00
2015,06,26,03,18,14.00
2015,06,26,03,19,14.00
2015,06,26,03,20,14.00
2015,06,26,03,21,13.90
2015,06,26,03,22,13.90
2015,06,26,03,23,13.90
2015,06,26,03,24,13.90
2015,06,26,03,25,13.90
2015,06,26,03,26,13.90
2015,06,26,03,27,13.90
2015,06,26,03,28,13.90
2015,06,26,03,29,13.90
2015,06,26,03,30,13.90
2015,06,26,03,31,13.90
2015,06,26,03,32,13.90
2015,06,26,03,33,13.80
2015,06,26,03,34,13.80
2015,06,26,03,35,13.80
2015,06,26,03,36,13.80
2015,06,26,03,37,13.80
2015,06,26,03,38,13.80
2015,06,26,03,39,13.80
2015,06,26,03,40,13.80
2015,06,26,03,41,13.80
2015,06,26,03,42,13.80
2015,06,26,03,43,13.80
2015,06,26,03,44,13.70
2015,06,26,03,45,13.70
2015,06,26,03,46,13.70
2015,06,26,03,47,13.70
2015,06,26,03,48,13.70
2015,06,26,03,49,13.70
2015,06,26,03,50,13.70
2015,06,26,03,51,13.70
2015,06,26,03,52,13.70
2015,06,26,03,53,13.70
2015,06,26,03,54,13.70
2015,06,26,03,55,13.70
2015,06,26,03,56,13.70
2015,06,26,03,57,13.70
2015,06,26,03,58,13.60
2015,06,26,03,59,13.60
2015,06,26,04,00,13.60
2015,06,26,04,01,13.60
2015,06,26,04,02,13.60
2015,06,26,04,03,13.60
2015,06,26,04,04,13.60
2015,06,26,04,05,13.60
2015,06,26,04,06,13.60
2015,06,26,04,07,13.60
2015,06,26,04,08,13.60
2015,06,26,04,09,13.50
2015,06,26,04,10,13.50
2015,06,26,04,11,13.50
2015,06,26,04,12,13.50
2015,06,26,04,13,13.50
2015,06,26,04,14,13.50
2015,06,26,04,15,13.40
2015,06,26,04,16,13.40
2015,06,26,04,17,13.40
2015,06,26,04,18,13.40
2015,06,26,04,19,13.40
2015,06,26,04,20,13.40
2015,06,26,04,21,13.40
2015,06,26,04,22,13.40
2015,06,26,04,23,13.40
2015,06,26,04,24,13.40
2015,06,26,04,25,13.40
2015,06,26,04,26,13.40
2015,06,26,04,27,13.40
2015,06,26,04,28,13.40
2015,06,26,04,29,13.30
2015,06,26,04,30,13.30
2015,06,26,04,31,13.30
2015,06,26,04,32,13.30
2015,06,26,04,33,13.30
2015,06,26,04,34,13.30
2015,06,26,04,35,13.30
2015,06,26,04,36,13.30
2015,06,26,04,37,13.30
2015,06,26,04,38,13.30
2015,06,26,04,39,13.30
2015,06,26,04,40,13.30
2015,06,26,04,41,13.30
2015,06,26,04,42,13.20
2015,06,26,04,43,13.20
2015,06,26,04,44,13.20
2015,06,26,04,45,13.20
2015,06,26,04,46,13.20
2015,06,26,04,47,13.20
2015,06,26,04,48,13.20
2015,06,26,04,49,13.20
2015,06,26,04,50,13.20
2015,06,26,04,51,13.20
2015,06,26,04,52,13.20
2015,06,26,04,53,13.20
2015,06,26,04,54,13.20
2015,06,26,04,55,13.20
2015,06,26,04,56,13.20
2015,06,26,04,57,13.20
2015,06,26,04,58,13.20
2015,06,26,04,59,13.20
2015,06,26,05,00,13.20
2015,06,26,05,01,13.20
2015,06,26,05,02,13.20
2015,06,26,05,03,13.20
2015,06,26,05,04,13.20
2015,06,26,05,05,13.20
2015,06,26,05,06,13.20
2015,06,26,05,07,13.20
2015,06,26,05,08,13.20
2015,06,26,05,09,13.20
2015,06,26,05,10,13.20
2015,06,26,05,11,13.20
2015,06,26,05,12,13.20
2015,06,26,05,13,13.20
2015,06,26,05,14,13.20
2015,06,26,05,15,13.20
2015,06,26,05,16,13.20
2015,06,26,05,17,13.10
2015,06,26,05,18,13.10
2015,06,26,05,19,13.10
2015,06,26,05,20,13.10
2015,06,26,05,21,13.10
2015,06,26,05,22,13.10
2015,06,26,05,23,13.10
2015,06,26,05,24,13.10
2015,06,26,05,25,13.10
2015,06,26,05,26,13.10
2015,06,26,05,27,13.10
2015,06,26,05,28,13.10
2015,06,26,05,29,13.10
2015,06,26,05,30,13.10
2015,06,26,05,31,13.10
2015,06,26,05,32,13.10
2015,06,26,05,33,13.10
2015,06,26,05,34,13.10
2015,06,26,05,35,13.10
2015,06,26,05,36,13.10
2015,06,26,05,37,13.10
2015,06,26,05,38,13.10
2015,06,26,05,39,13.10
2015,06,26,05,40,13.10
2015,06,26,05,41,13.10
2015,06,26,05,42,13.10
2015,06,26,05,43,13.10
2015,06,26,05,44,13.10
2015,06,26,05,45,13.10
2015,06,26,05,46,13.10
2015,06,26,05,47,13.10
2015,06,26,05,48,13.10
2015,06,26,05,49,13.10
2015,06,26,05,50,13.10
2015,06,26,05,51,13.10
2015,06,26,05,52,13.10
2015,06,26,05,53,13.10
2015,06,26,05,54,13.10
2015,06,26,05,55,13.10
2015,06,26,05,56,13.10
2015,06,26,05,57,13.10
2015,06,26,05,58,13.10
2015,06,26,05,59,13.10
2015,06,26,06,00,13.10
2015,06,26,06,01,13.10
2015,06,26,06,02,13.10
2015,06,26,06,03,13.20
2015,06,26,06,04,13.20
2015,06,26,06,05,13.20
2015,06,26,06,06,13.20
2015,06,26,06,07,13.20
2015,06,26,06,08,13.20
2015,06,26,06,09,13.20
2015,06,26,06,10,13.20
2015,06,26,06,11,13.20
2015,06,26,06,12,13.20
2015,06,26,06,13,13.20
2015,06,26,06,14,13.20
2015,06,26,06,15,13.20
2015,06,26,06,16,13.20
2015,06,26,06,17,13.20
2015,06,26,06,18,13.20
2015,06,26,06,19,13.20
2015,06,26,06,20,13.30
2015,06,26,06,21,13.30
2015,06,26,06,22,13.30
2015,06,26,06,23,13.30
2015,06,26,06,24,13.30
2015,06,26,06,25,13.30
2015,06,26,06,26,13.30
2015,06,26,06,27,13.30
2015,06,26,06,28,13.30
2015,06,26,06,29,13.30
2015,06,26,06,30,13.30
2015,06,26,06,31,13.30
2015,06,26,06,32,13.30
2015,06,26,06,33,13.30
2015,06,26,06,34,13.30
2015,06,26,06,35,13.40
2015,06,26,06,36,13.40
2015,06,26,06,37,13.40
2015,06,26,06,38,13.40
2015,06,26,06,39,13.40
2015,06,26,06,40,13.40
2015,06,26,06,41,13.40
2015,06,26,06,42,13.50
2015,06,26,06,43,13.50
2015,06,26,06,44,13.50
2015,06,26,06,45,13.60
2015,06,26,06,46,13.60
2015,06,26,06,47,13.60
2015,06,26,06,48,13.60
2015,06,26,06,49,13.60
2015,06,26,06,50,13.60
2015,06,26,06,51,13.60
2015,06,26,06,52,13.70
2015,06,26,06,53,13.70
2015,06,26,06,54,13.70
2015,06,26,06,55,13.70
2015,06,26,06,56,13.70
2015,06,26,06,57,13.70
2015,06,26,06,58,13.80
2015,06,26,06,59,13.80
2015,06,26,07,00,13.80
2015,06,26,07,01,13.80
2015,06,26,07,02,13.90
2015,06,26,07,03,13.90
2015,06,26,07,04,13.90
2015,06,26,07,05,14.00
2015,06,26,07,06,14.00
2015,06,26,07,07,14.00
2015,06,26,07,08,14.10
2015,06,26,07,09,14.10
2015,06,26,07,10,14.20
2015,06,26,07,11,14.20
2015,06,26,07,12,14.20
2015,06,26,07,13,14.30
2015,06,26,07,14,14.30
2015,06,26,07,15,14.40
2015,06,26,07,16,14.40
2015,06,26,07,17,14.50
2015,06,26,07,18,14.50
2015,06,26,07,19,14.60
2015,06,26,07,20,14.70
2015,06,26,07,21,14.80
2015,06,26,07,22,14.90
2015,06,26,07,23,15.00
2015,06,26,07,24,15.00
2015,06,26,07,25,15.10
2015,06,26,07,26,15.30
2015,06,26,07,27,15.40
2015,06,26,07,28,15.60
2015,06,26,07,29,15.70
2015,06,26,07,30,15.90
2015,06,26,07,31,16.10
2015,06,26,07,32,16.20
2015,06,26,07,33,16.40
2015,06,26,07,34,16.50
2015,06,26,07,35,16.70
2015,06,26,07,36,16.90
2015,06,26,07,37,17.00
2015,06,26,07,38,17.20
2015,06,26,07,39,17.50
2015,06,26,07,40,17.70
2015,06,26,07,41,17.90
2015,06,26,07,42,18.10
2015,06,26,07,43,18.30
2015,06,26,07,44,18.50
2015,06,26,07,45,18.70
2015,06,26,07,46,18.90
2015,06,26,07,47,19.20
2015,06,26,07,48,19.40
2015,06,26,07,49,19.60
2015,06,26,07,50,19.80
2015,06,26,07,51,20.00
2015,06,26,07,52,20.20
2015,06,26,07,53,20.30
2015,06,26,07,54,20.40
2015,06,26,07,55,20.60
2015,06,26,07,56,20.70
2015,06,26,07,57,20.80
2015,06,26,07,58,20.80
2015,06,26,07,59,20.90
2015,06,26,08,00,21.00
2015,06,26,08,01,21.10
2015,06,26,08,02,21.20
2015,06,26,08,03,21.30
2015,06,26,08,04,21.40
2015,06,26,08,05,21.50
2015,06,26,08,06,21.70
2015,06,26,08,07,21.80
2015,06,26,08,08,21.90
2015,06,26,08,09,22.00
2015,06,26,08,10,22.10
2015,06,26,08,11,22.20
2015,06,26,08,12,22.20
2015,06,26,08,13,22.30
2015,06,26,08,14,22.40
2015,06,26,08,15,22.40
2015,06,26,08,16,22.50
2015,06,26,08,17,22.50
2015,06,26,08,18,22.60
2015,06,26,08,19,22.60
2015,06,26,08,20,22.60
2015,06,26,08,21,22.70
2015,06,26,08,22,22.70
2015,06,26,08,23,22.80
2015,06,26,08,24,22.80
2015,06,26,08,25,22.90
2015,06,26,08,26,22.90
2015,06,26,08,27,22.90
2015,06,26,08,28,23.00
2015,06,26,08,29,23.00
2015,06,26,08,30,23.10
2015,06,26,08,31,23.10
2015,06,26,08,32,23.10
2015,06,26,08,33,23.00
2015,06,26,08,34,23.00
2015,06,26,08,35,22.90
2015,06,26,08,36,22.90
2015,06,26,08,37,22.90
2015,06,26,08,38,22.90
2015,06,26,08,39,22.90
2015,06,26,08,40,22.90
2015,06,26,08,41,22.90
2015,06,26,08,42,23.00
2015,06,26,08,43,23.00
2015,06,26,08,44,23.00
2015,06,26,08,45,23.00
2015,06,26,08,46,23.00
2015,06,26,08,47,23.00
2015,06,26,08,48,23.00
2015,06,26,08,49,23.00
2015,06,26,08,50,22.90
2015,06,26,08,51,22.90
2015,06,26,08,52,22.90
2015,06,26,08,53,23.00
2015,06,26,08,54,23.00
2015,06,26,08,55,23.10
2015,06,26,08,56,23.10
2015,06,26,08,57,23.20
2015,06,26,08,58,23.20
2015,06,26,08,59,23.20
2015,06,26,09,00,23.30
2015,06,26,09,01,23.30
2015,06,26,09,02,23.30
2015,06,26,09,03,23.30
2015,06,26,09,04,23.20
2015,06,26,09,05,23.20
2015,06,26,09,06,23.30
2015,06,26,09,07,23.30
2015,06,26,09,08,23.40
2015,06,26,09,09,23.40
2015,06,26,09,10,23.40
2015,06,26,09,11,23.50
2015,06,26,09,12,23.60
2015,06,26,09,13,23.70
2015,06,26,09,14,23.80
2015,06,26,09,15,23.90
2015,06,26,09,16,24.00
2015,06,26,09,17,24.10
2015,06,26,09,18,24.10
2015,06,26,09,19,24.00
2015,06,26,09,20,23.90
2015,06,26,09,21,23.80
2015,06,26,09,22,23.80
2015,06,26,09,23,23.80
2015,06,26,09,24,23.80
2015,06,26,09,25,23.80
2015,06,26,09,26,23.90
2015,06,26,09,27,23.90
2015,06,26,09,28,24.00
2015,06,26,09,29,24.00
2015,06,26,09,30,24.10
2015,06,26,09,31,24.10
2015,06,26,09,32,24.10
2015,06,26,09,33,24.10
2015,06,26,09,34,24.20
2015,06,26,09,35,24.30
2015,06,26,09,36,24.30
2015,06,26,09,37,24.30
2015,06,26,09,38,24.40
2015,06,26,09,39,24.40
2015,06,26,09,40,24.40
2015,06,26,09,41,24.40
2015,06,26,09,42,24.40
2015,06,26,09,43,24.40
2015,06,26,09,44,24.40
2015,06,26,09,45,24.40
2015,06,26,09,46,24.40
2015,06,26,09,47,24.50
2015,06,26,09,48,24.60
2015,06,26,09,49,24.60
2015,06,26,09,50,24.60
2015,06,26,09,51,24.60
2015,06,26,09,52,24.60
2015,06,26,09,53,24.70
2015,06,26,09,54,24.70
2015,06,26,09,55,24.70
2015,06,26,09,56,24.70
2015,06,26,09,57,24.70
2015,06,26,09,58,24.70
2015,06,26,09,59,24.80
2015,06,26,10,00,24.80
2015,06,26,10,01,24.80
2015,06,26,10,02,24.80
2015,06,26,10,03,24.70
2015,06,26,10,04,24.70
2015,06,26,10,05,24.70
2015,06,26,10,06,24.60
2015,06,26,10,07,24.60
2015,06,26,10,08,24.70
2015,06,26,10,09,24.70
2015,06,26,10,10,24.80
2015,06,26,10,11,24.90
2015,06,26,10,12,25.00
2015,06,26,10,13,25.10
2015,06,26,10,14,25.20
2015,06,26,10,15,25.30
2015,06,26,10,16,25.30
2015,06,26,10,17,25.40
2015,06,26,10,18,25.50
2015,06,26,10,19,25.60
2015,06,26,10,20,25.50
2015,06,26,10,21,25.50
2015,06,26,10,22,25.40
2015,06,26,10,23,25.50
2015,06,26,10,24,25.60
2015,06,26,10,25,25.70
2015,06,26,10,26,25.70
2015,06,26,10,27,25.80
2015,06,26,10,28,25.80
2015,06,26,10,29,25.70
2015,06,26,10,30,25.80
2015,06,26,10,31,25.80
2015,06,26,10,32,25.80
2015,06,26,10,33,25.80
2015,06,26,10,34,25.90
2015,06,26,10,35,25.90
2015,06,26,10,36,25.90
2015,06,26,10,37,25.90
2015,06,26,10,38,25.90
2015,06,26,10,39,25.90
2015,06,26,10,40,25.80
2015,06,26,10,41,25.70
2015,06,26,10,42,25.60
2015,06,26,10,43,25.60
2015,06,26,10,44,25.50
2015,06,26,10,45,25.40
2015,06,26,10,46,25.30
2015,06,26,10,47,25.30
2015,06,26,10,48,25.20
2015,06,26,10,49,25.10
2015,06,26,10,50,25.10
2015,06,26,10,51,25.20
2015,06,26,10,52,25.20
2015,06,26,10,53,25.30
2015,06,26,10,54,25.30
2015,06,26,10,55,25.40
2015,06,26,10,56,25.50
2015,06,26,10,57,25.60
2015,06,26,10,58,25.60
2015,06,26,10,59,25.70
2015,06,26,11,00,25.70
2015,06,26,11,01,25.80
2015,06,26,11,02,25.90
2015,06,26,11,03,25.90
2015,06,26,11,04,25.90
2015,06,26,11,05,25.90
2015,06,26,11,06,25.90
2015,06,26,11,07,25.90
2015,06,26,11,08,26.00
2015,06,26,11,09,26.10
2015,06,26,11,10,26.20
2015,06,26,11,11,26.30
2015,06,26,11,12,26.50
2015,06,26,11,13,26.50
2015,06,26,11,14,26.50
2015,06,26,11,15,26.40
2015,06,26,11,16,26.40
2015,06,26,11,17,26.30
2015,06,26,11,18,26.20
2015,06,26,11,19,26.10
2015,06,26,11,20,26.10
2015,06,26,11,21,26.10
2015,06,26,11,22,26.20
2015,06,26,11,23,26.30
2015,06,26,11,24,26.40
2015,06,26,11,25,26.40
2015,06,26,11,26,26.30
2015,06,26,11,27,26.30
2015,06,26,11,28,26.30
2015,06,26,11,29,26.30
2015,06,26,11,30,26.30
2015,06,26,11,31,26.30
2015,06,26,11,32,26.30
2015,06,26,11,33,26.40
2015,06,26,11,34,26.40
2015,06,26,11,35,26.50
2015,06,26,11,36,26.50
2015,06,26,11,37,26.60
2015,06,26,11,38,26.70
2015,06,26,11,39,26.80
2015,06,26,11,40,26.90
2015,06,26,11,41,26.80
2015,06,26,11,42,26.70
2015,06,26,11,43,26.70
2015,06,26,11,44,26.60
2015,06,26,11,45,26.50
2015,06,26,11,46,26.50
2015,06,26,11,47,26.50
2015,06,26,11,48,26.50
2015,06,26,11,49,26.60
2015,06,26,11,50,26.50
2015,06,26,11,51,26.50
2015,06,26,11,52,26.60
2015,06,26,11,53,26.60
2015,06,26,11,54,26.60
2015,06,26,11,55,26.70
2015,06,26,11,56,26.70
2015,06,26,11,57,26.60
2015,06,26,11,58,26.60
2015,06,26,11,59,26.60
2015,06,26,12,00,26.70
2015,06,26,12,01,26.80
2015,06,26,12,02,27.00
2015,06,26,12,03,27.10
2015,06,26,12,04,27.20
2015,06,26,12,05,27.30
2015,06,26,12,06,27.40
2015,06,26,12,07,27.40
2015,06,26,12,08,27.50
2015,06,26,12,09,27.50
2015,06,26,12,10,27.50
2015,06,26,12,11,27.60
2015,06,26,12,12,27.60
2015,06,26,12,13,27.60
2015,06,26,12,14,27.70
2015,06,26,12,15,27.70
2015,06,26,12,16,27.70
2015,06,26,12,17,27.50
2015,06,26,12,18,27.40
2015,06,26,12,19,27.40
2015,06,26,12,20,27.30
2015,06,26,12,21,27.30
2015,06,26,12,22,27.40
2015,06,26,12,23,27.50
2015,06,26,12,24,27.40
2015,06,26,12,25,27.40
2015,06,26,12,26,27.30
2015,06,26,12,27,27.30
2015,06,26,12,28,27.20
2015,06,26,12,29,27.20
2015,06,26,12,30,27.30
2015,06,26,12,31,27.30
2015,06,26,12,32,27.30
2015,06,26,12,33,27.30
2015,06,26,12,34,27.30
2015,06,26,12,35,27.20
2015,06,26,12,36,27.20
2015,06,26,12,37,27.30
2015,06,26,12,38,27.30
2015,06,26,12,39,27.30
2015,06,26,12,40,27.30
2015,06,26,12,41,27.40
2015,06,26,12,42,27.40
2015,06,26,12,43,27.30
2015,06,26,12,44,27.30
2015,06,26,12,45,27.40
2015,06,26,12,46,27.40
2015,06,26,12,47,27.40
2015,06,26,12,48,27.40
2015,06,26,12,49,27.50
2015,06,26,12,50,27.60
2015,06,26,12,51,27.70
2015,06,26,12,52,27.80
2015,06,26,12,53,27.80
2015,06,26,12,54,27.70
2015,06,26,12,55,27.60
2015,06,26,12,56,27.60
2015,06,26,12,57,27.60
2015,06,26,12,58,27.60
2015,06,26,12,59,27.50
2015,06,26,13,00,27.40
2015,06,26,13,01,27.20
2015,06,26,13,02,27.10
2015,06,26,13,03,26.90
2015,06,26,13,04,26.90
2015,06,26,13,05,26.90
2015,06,26,13,06,26.70
2015,06,26,13,07,26.60
2015,06,26,13,08,26.60
2015,06,26,13,09,26.60
2015,06,26,13,10,26.60
2015,06,26,13,11,26.70
2015,06,26,13,12,26.80
2015,06,26,13,13,27.00
2015,06,26,13,14,27.10
2015,06,26,13,15,27.20
2015,06,26,13,16,27.30
2015,06,26,13,17,27.40
2015,06,26,13,18,27.50
2015,06,26,13,19,27.60
2015,06,26,13,20,27.60
2015,06,26,13,21,27.60
2015,06,26,13,22,27.40
2015,06,26,13,23,27.30
2015,06,26,13,24,27.40
2015,06,26,13,25,27.50
2015,06,26,13,26,27.60
2015,06,26,13,27,27.70
2015,06,26,13,28,27.70
2015,06,26,13,29,27.80
2015,06,26,13,30,27.80
2015,06,26,13,31,27.90
2015,06,26,13,32,28.00
2015,06,26,13,33,28.00
2015,06,26,13,34,28.10
2015,06,26,13,35,28.10
2015,06,26,13,36,28.20
2015,06,26,13,37,28.20
2015,06,26,13,38,28.20
2015,06,26,13,39,28.20
2015,06,26,13,40,28.20
2015,06,26,13,41,28.20
2015,06,26,13,42,28.20
2015,06,26,13,43,28.20
2015,06,26,13,44,28.20
2015,06,26,13,45,28.10
2015,06,26,13,46,28.00
2015,06,26,13,47,27.90
2015,06,26,13,48,27.70
2015,06,26,13,49,27.60
2015,06,26,13,50,27.50
2015,06,26,13,51,27.40
2015,06,26,13,52,27.40
2015,06,26,13,53,27.50
2015,06,26,13,54,27.60
2015,06,26,13,55,27.70
2015,06,26,13,56,27.70
2015,06,26,13,57,27.70
2015,06,26,13,58,27.80
2015,06,26,13,59,27.80
2015,06,26,14,00,27.80
2015,06,26,14,01,27.70
2015,06,26,14,02,27.70
2015,06,26,14,03,27.70
2015,06,26,14,04,27.70
2015,06,26,14,05,27.80
2015,06,26,14,06,28.00
2015,06,26,14,07,28.10
2015,06,26,14,08,28.30
2015,06,26,14,09,28.50
2015,06,26,14,10,28.60
2015,06,26,14,11,28.70
2015,06,26,14,12,28.70
2015,06,26,14,13,28.60
2015,06,26,14,14,28.60
2015,06,26,14,15,28.50
2015,06,26,14,16,28.30
2015,06,26,14,17,28.20
2015,06,26,14,18,28.20
2015,06,26,14,19,28.20
2015,06,26,14,20,28.20
2015,06,26,14,21,28.20
2015,06,26,14,22,28.30
2015,06,26,14,23,28.40
2015,06,26,14,24,28.50
2015,06,26,14,25,28.60
2015,06,26,14,26,28.70
2015,06,26,14,27,28.80
2015,06,26,14,28,28.80
2015,06,26,14,29,28.80
2015,06,26,14,30,28.80
2015,06,26,14,31,28.60
2015,06,26,14,32,28.50
2015,06,26,14,33,28.40
2015,06,26,14,34,28.40
2015,06,26,14,35,28.30
2015,06,26,14,36,28.20
2015,06,26,14,37,28.20
2015,06,26,14,38,28.10
2015,06,26,14,39,28.10
2015,06,26,14,40,28.10
2015,06,26,14,41,28.00
2015,06,26,14,42,27.90
2015,06,26,14,43,27.90
2015,06,26,14,44,27.80
2015,06,26,14,45,27.70
2015,06,26,14,46,27.60
2015,06,26,14,47,27.60
2015,06,26,14,48,27.60
2015,06,26,14,49,27.60
2015,06,26,14,50,27.70
2015,06,26,14,51,27.90
2015,06,26,14,52,28.00
2015,06,26,14,53,28.20
2015,06,26,14,54,28.30
2015,06,26,14,55,28.30
2015,06,26,14,56,28.40
2015,06,26,14,57,28.50
2015,06,26,14,58,28.60
2015,06,26,14,59,28.70
2015,06,26,15,00,28.80
2015,06,26,15,01,28.90
2015,06,26,15,02,28.80
2015,06,26,15,03,28.60
2015,06,26,15,04,28.40
2015,06,26,15,05,28.30
2015,06,26,15,06,28.30
2015,06,26,15,07,28.40
2015,06,26,15,08,28.40
2015,06,26,15,09,28.40
2015,06,26,15,10,28.40
2015,06,26,15,11,28.40
2015,06,26,15,12,28.60
2015,06,26,15,13,28.70
2015,06,26,15,14,28.80
2015,06,26,15,15,28.80
2015,06,26,15,16,28.80
2015,06,26,15,17,28.90
2015,06,26,15,18,28.90
2015,06,26,15,19,29.00
2015,06,26,15,20,29.10
2015,06,26,15,21,29.00
2015,06,26,15,22,28.90
2015,06,26,15,23,28.90
2015,06,26,15,24,28.90
2015,06,26,15,25,28.90
2015,06,26,15,26,29.10
2015,06,26,15,27,29.10
2015,06,26,15,28,29.20
2015,06,26,15,29,29.40
2015,06,26,15,30,29.40
2015,06,26,15,31,29.40
2015,06,26,15,32,29.30
2015,06,26,15,33,29.30
2015,06,26,15,34,29.20
2015,06,26,15,35,29.10
2015,06,26,15,36,29.00
2015,06,26,15,37,29.00
2015,06,26,15,38,29.00
2015,06,26,15,39,29.10
2015,06,26,15,40,29.10
2015,06,26,15,41,29.10
2015,06,26,15,42,29.10
2015,06,26,15,43,29.10
2015,06,26,15,44,29.00
2015,06,26,15,45,28.90
2015,06,26,15,46,28.90
2015,06,26,15,47,28.90
2015,06,26,15,48,28.80
2015,06,26,15,49,28.70
2015,06,26,15,50,28.70
2015,06,26,15,51,28.70
2015,06,26,15,52,28.70
2015,06,26,15,53,28.80
2015,06,26,15,54,28.80
2015,06,26,15,55,28.80
2015,06,26,15,56,28.80
2015,06,26,15,57,28.90
2015,06,26,15,58,28.90
2015,06,26,15,59,29.00
2015,06,26,16,00,29.00
2015,06,26,16,01,29.00
2015,06,26,16,02,29.00
2015,06,26,16,03,28.90
2015,06,26,16,04,28.90
2015,06,26,16,05,28.90
2015,06,26,16,06,29.00
2015,06,26,16,07,29.00
2015,06,26,16,08,29.00
2015,06,26,16,09,29.00
2015,06,26,16,10,28.90
2015,06,26,16,11,28.90
2015,06,26,16,12,28.90
2015,06,26,16,13,28.90
2015,06,26,16,14,29.00
2015,06,26,16,15,29.00
2015,06,26,16,16,29.00
2015,06,26,16,17,29.00
2015,06,26,16,18,29.00
2015,06,26,16,19,29.00
2015,06,26,16,20,29.00
2015,06,26,16,21,28.90
2015,06,26,16,22,28.90
2015,06,26,16,23,28.80
2015,06,26,16,24,28.70
2015,06,26,16,25,28.60
2015,06,26,16,26,28.50
2015,06,26,16,27,28.50
2015,06,26,16,28,28.40
2015,06,26,16,29,28.50
2015,06,26,16,30,28.50
2015,06,26,16,31,28.60
2015,06,26,16,32,28.60
2015,06,26,16,33,28.60
2015,06,26,16,34,28.60
2015,06,26,16,35,28.60
2015,06,26,16,36,28.50
2015,06,26,16,37,28.50
2015,06,26,16,38,28.50
2015,06,26,16,39,28.50
2015,06,26,16,40,28.40
2015,06,26,16,41,28.50
2015,06,26,16,42,28.40
2015,06,26,16,43,28.40
2015,06,26,16,44,28.40
2015,06,26,16,45,28.40
2015,06,26,16,46,28.40
2015,06,26,16,47,28.40
2015,06,26,16,48,28.50
2015,06,26,16,49,28.50
2015,06,26,16,50,28.50
2015,06,26,16,51,28.50
2015,06,26,16,52,28.50
2015,06,26,16,53,28.40
2015,06,26,16,54,28.40
2015,06,26,16,55,28.30
2015,06,26,16,56,28.20
2015,06,26,16,57,28.20
2015,06,26,16,58,28.10
2015,06,26,16,59,28.00
2015,06,26,17,00,27.90
2015,06,26,17,01,27.90
2015,06,26,17,02,27.90
2015,06,26,17,03,27.80
2015,06,26,17,04,27.90
2015,06,26,17,05,27.90
2015,06,26,17,06,27.90
2015,06,26,17,07,27.90
2015,06,26,17,08,28.00
2015,06,26,17,09,28.00
2015,06,26,17,10,28.10
2015,06,26,17,11,28.10
2015,06,26,17,12,28.10
2015,06,26,17,13,28.20
2015,06,26,17,14,28.20
2015,06,26,17,15,28.30
2015,06,26,17,16,28.30
2015,06,26,17,17,28.30
2015,06,26,17,18,28.30
2015,06,26,17,19,28.30